Lid_Strength_Index
3 7 7 10 14 16 18 15 13 12 11 9 8 7 8 7 9 11 2 1 1 1 -0 -0 -1 -1 -1 -1 -1 -1 -1 -1 -1 -1 -1 -1 -1 -1 -1 -1 -1 -1 -1 -1 -2 -2 -2 -2 -2
6 7 8 11 16 19 17 14 13 12 10 9 11 8 8 8 5 5 4 1 0 0 -0 -0 -1 -1 -1 -1 -1 -1 -1 -1 -1 -1 -1 -1 -1 -1 -1 -1 -1 -1 -1 -1 -2 -2 -2 -3 -2
9 7 10 13 17 17 16 14 13 11 9 8 10 7 7 7 4 4 2 1 0 0 -0 -0 -1 -1 -1 -1 -1 -1 -1 -1 -1 -1 -1 -1 -1 -1 -1 -1 -1 -1 -1 -1 -2 -2 -3 -3 -2
9 9 11 14 15 13 13 12 11 10 9 7 7 8 6 5 5 2 1 0 1 0 -0 -0 -1 -1 -1 -1 -1 -1 -1 -1 -1 -1 -1 -1 -1 -1 -1 -1 -1 -2 -2 -2 -2 -2 -2 -3 -3
9 11 15 16 14 12 10 10 10 11 11 9 7 7 6 5 2 1 1 1 1 1 0 -0 -1 -1 -1 -1 -1 -1 -1 -1 -1 -1 -1 -1 -1 -1 -1 -1 -1 -2 -2 -2 -2 -2 -2 -2 -3
11 11 16 17 13 11 10 9 9 11 10 9 8 7 7 6 3 2 1 1 0 1 0 -0 -1 -1 -1 -1 -1 -1 -1 -1 -1 -1 -1 -1 -1 -1 -1 -1 -1 -2 -2 -2 -2 -3 -2 -2 -2
11 13 15 15 13 11 10 9 10 10 10 10 9 8 7 7 4 2 1 1 0 0 0 -0 -0 -0 -1 -1 -1 -1 -1 -1 -1 -1 -1 -1 -1 -1 -1 -1 -1 -1 -2 -2 -2 -3 -3 -2 -2
10 11 15 13 12 12 9 10 10 10 10 8 9 9 8 6 3 1 2 2 1 1 0 0 -0 -0 -0 -0 -1 -1 -1 -1 -1 -1 -1 -1 -1 -1 -1 -1 -1 -1 -2 -2 -2 -2 -2 -2 -2
9 14 15 12 11 10 8 10 10 8 9 9 9 9 7 5 2 3 3 2 2 1 1 0 0 -0 -0 -0 -0 -1 -1 -1 -1 -1 -1 -0 -0 -1 -1 -1 -1 -1 -2 -2 -2 -2 -2 -2 -2
11 14 13 10 9 9 9 10 9 9 10 10 10 8 7 7 5 4 4 4 3 2 1 1 0 0 0 -0 -0 -0 -0 -0 -0 -0 -0 -0 -0 -0 -0 -1 -1 -1 -2 -2 -2 -2 -2 -2 -1
13 14 12 9 8 9 9 9 8 9 10 10 10 9 8 6 7 5 4 3 3 2 2 1 0 0 0 0 -0 -0 -0 -0 -0 -0 -0 -0 -0 -0 -0 -0 -0 -0 -1 -0 -1 -1 -1 -1 -1
13 10 10 10 9 10 9 8 8 9 8 7 8 8 7 8 7 5 4 3 3 2 2 1 0 0 0 0 0 0 0 -0 -0 -0 -0 -0 -0 -0 -0 -0 -0 -0 -0 -0 -0 -0 -1 -0 -1
13 12 11 10 11 11 9 10 9 9 7 6 8 8 7 7 7 7 6 3 3 3 2 1 1 1 0 1 0 0 0 0 -0 -0 -0 -0 0 0 -0 -0 -0 -0 -0 -0 -0 -0 0 1 1
12 12 11 11 11 10 10 10 10 9 7 7 8 9 8 7 7 7 7 3 3 2 2 1 1 0 0 0 0 0 0 -0 -0 -0 -0 0 0 0 0 0 -0 0 -0 -0 -0 0 0 1 1
12 13 12 12 11 11 11 12 11 9 8 8 7 9 9 8 7 7 6 3 3 2 2 1 1 0 1 1 0 0 0 -0 0 -0 -0 -0 -0 1 1 1 0 -0 -0 -0 0 0 1 1 1
14 15 16 13 12 10 11 15 10 9 9 9 8 8 8 9 7 6 6 3 2 2 2 2 1 1 1 1 0 0 0 0 0 0 -0 -0 0 0 1 1 1 -0 -0 -0 0 0 1 1 2
15 18 17 14 11 11 13 14 10 9 9 10 9 9 8 9 9 8 6 6 4 3 2 2 2 1 1 1 0 0 0 0 0 1 1 0 0 0 1 1 1 0 -0 0 0 1 1 1 2
17 17 16 15 12 13 13 13 11 10 10 10 10 9 9 8 8 8 7 5 5 2 3 2 2 1 1 1 1 1 1 0 1 1 0 -0 -0 -0 1 1 2 0 0 1 0 1 1 1 2
13 14 15 13 11 13 13 13 11 10 11 11 10 10 9 9 7 7 7 6 6 3 3 3 2 2 2 2 2 2 2 1 1 0 -0 -0 -0 -0 0 0 0 0 1 1 1 1 1 2 2
13 15 15 13 11 13 13 13 12 11 11 10 10 9 9 9 8 7 7 5 3 3 2 3 2 2 2 2 1 1 1 1 1 1 0 -0 -0 -0 0 0 0 0 1 1 1 1 2 2 3
14 15 15 14 12 12 13 14 13 11 11 10 9 9 9 9 8 8 7 4 3 3 3 2 2 3 1 1 2 3 2 2 2 2 1 1 0 -0 -0 0 0 1 0 1 1 2 2 3 3
16 12 12 12 14 17 13 17 13 12 11 11 10 9 9 8 8 8 7 5 4 3 2 2 2 4 3 2 2 3 3 3 3 3 2 2 1 0 0 0 0 0 0 1 1 1 2 2 3
14 11 11 12 14 16 15 19 15 12 12 11 9 9 8 8 8 8 7 6 4 3 3 3 3 5 6 3 2 2 3 3 3 3 3 2 2 1 1 1 0 1 0 1 1 1 1 1 2
10 12 13 14 16 20 15 16 16 14 12 11 9 9 8 7 7 7 6 6 5 3 4 4 4 6 6 5 5 4 4 4 5 5 4 3 2 2 1 1 1 1 1 1 1 1 1 1 1
13 15 19 21 20 18 15 17 15 12 9 10 9 7 7 8 7 7 7 7 6 4 4 4 5 5 4 4 4 4 3 4 5 5 5 5 4 4 2 1 1 1 1 0 0 1 1 1 1
14 15 18 22 21 18 15 18 15 10 9 7 7 7 7 8 8 8 7 7 6 4 3 3 5 5 4 3 3 2 2 2 2 2 2 3 3 3 2 2 1 0 1 0 0 0 1 1 1
14 16 13 17 18 21 18 15 12 9 8 8 8 7 7 7 7 8 7 6 6 4 3 3 4 3 3 2 2 2 2 2 2 2 2 2 2 1 1 0 1 1 0 0 1 1 1 1 1
12 11 16 18 23 23 19 17 16 12 10 9 8 8 8 7 7 8 8 7 6 4 4 3 4 4 3 2 2 2 2 2 2 2 2 2 2 1 1 1 1 1 1 0 1 1 1 1 1
14 15 16 16 17 21 21 18 12 11 10 9 8 7 7 7 7 7 7 6 7 6 6 5 5 4 3 3 2 2 2 2 2 2 2 2 2 1 1 1 1 1 1 1 1 1 1 1 1
13 14 14 18 18 16 17 17 9 9 10 8 8 7 6 5 6 7 6 5 5 5 7 5 5 4 3 3 2 3 2 2 2 2 2 1 1 1 1 1 1 1 1 0 1 1 1 1 1